Larnaca, Cyprus

8:45 PM EET on December 11, 2018 (GMT +0200)
Larnaca International

Weather History for LCLK - January, 2018

Change the Weather History Date:

Saturday, January 13, 2018

  Actual Average Record
Temperature  
Mean Temperature 58 °F -  
Max Temperature 67 °F 61 °F 71 °F (2003)
Min Temperature 49 °F 44 °F 37 °F (2000)
Degree Days  
Heating Degree Days 7    
Growing Degree Days 8 (Base 50)    
Moisture  
Dew Point 51 °F    
Average Humidity 81    
Maximum Humidity 100    
Minimum Humidity 50    
Precipitation  
Precipitation 0.04 in 0.08 in - ()
Sea Level Pressure  
Sea Level Pressure 30.02 in    
Wind  
Wind Speed 5 mph ()    
Max Wind Speed 8 mph    
Max Gust Speed -    
Visibility 7.1 miles    
Events Rain , Thunderstorm    
Averages and records for this station are not official NWS values.
T = Trace of Precipitation, MM = Missing Value Source: Averaged Metar Reports

Daily Weather History Graph

Daily Weather History Graph

Search for Another Location

Airport or City:

Astronomy

Jan. 13, 2018 Rise Set
Actual Time 6:53 AM EET 4:55 PM EET
Civil Twilight 6:25 AM EET 5:22 PM EET
Nautical Twilight 5:54 AM EET 5:53 PM EET
Astronomical Twilight 5:24 AM EET 6:24 PM EET
Moon 3:38 AM EET (1/13) 2:15 PM EET (1/13)
Length of Visible Light 10h 57m
Length of Day
10h 02m
Waning Crescent, 12% of the Moon is Illuminated
Jan 13
Waning Crescent
Jan 17
New
Jan 25
First Quarter
Jan 31
Full
Feb 7
Last Quarter

Hourly Weather History & Observations

Time (EET) Temp. Dew Point Humidity Pressure Visibility Wind Dir Wind Speed Gust Speed Precip Events Conditions
12:00 AM 53.6 °F 53.6 °F 100% 30.12 in - WNW 4.6 mph - N/A   Clear
12:30 AM 53.6 °F 53.6 °F 100% 30.12 in - WNW 6.9 mph - N/A   Clear
1:00 AM 53.6 °F 51.8 °F 94% 30.12 in - NW 5.8 mph - N/A   Clear
1:30 AM 51.8 °F 51.8 °F 100% 30.12 in - WNW 6.9 mph - N/A   Clear
2:00 AM 53.6 °F 51.8 °F 94% 30.12 in - WNW 6.9 mph - N/A   Clear
2:30 AM 53.6 °F 51.8 °F 94% 30.12 in - NW 6.9 mph - N/A   Clear
3:00 AM 51.8 °F 51.8 °F 100% 30.09 in - WNW 6.9 mph - N/A   Clear
3:30 AM 51.8 °F 50.0 °F 94% 30.09 in 6.2 mi WNW 6.9 mph - N/A   Partly Cloudy
4:00 AM 51.8 °F 50.0 °F 94% 30.09 in 6.2 mi WNW 5.8 mph - N/A   Partly Cloudy
4:30 AM 50.0 °F 50.0 °F 100% 30.09 in 6.2 mi NW 8.1 mph - N/A   Partly Cloudy
5:00 AM 50 °F 50 °F 100% 30.10 in 12 mi WNW 8.1 mph - -   Scattered Clouds
5:00 AM 50.0 °F 50.0 °F 100% 30.09 in 6.2 mi WNW 8.1 mph - N/A   Partly Cloudy
5:30 AM 50.0 °F 50.0 °F 100% 30.09 in 6.2 mi WNW 6.9 mph - N/A   Partly Cloudy
6:00 AM 51.8 °F 50.0 °F 94% 30.09 in 6.2 mi NW 8.1 mph - N/A   Partly Cloudy
6:30 AM 51.8 °F 50.0 °F 94% 30.09 in 6.2 mi NW 5.8 mph - N/A   Partly Cloudy
7:30 AM 51.8 °F 50.0 °F 94% 30.09 in 6.2 mi WNW 4.6 mph - N/A   Partly Cloudy
8:00 AM 53 °F 52 °F 94% 30.10 in 16 mi NW 5.8 mph - -   Partly Cloudy
8:00 AM 53.6 °F 51.8 °F 94% 30.09 in 6.2 mi NW 5.8 mph - N/A   Scattered Clouds
8:30 AM 57.2 °F 53.6 °F 88% 30.09 in 6.2 mi NW 6.9 mph - N/A   Scattered Clouds
9:00 AM 59.0 °F 53.6 °F 82% 30.09 in 6.2 mi NW 5.8 mph - N/A   Partly Cloudy
9:30 AM 62.6 °F 55.4 °F 77% 30.09 in 6.2 mi NNW 4.6 mph - N/A   Partly Cloudy
10:00 AM 64.4 °F 53.6 °F 68% 30.09 in 6.2 mi Variable 2.3 mph - N/A   Partly Cloudy
10:30 AM 66.2 °F 55.4 °F 68% 30.06 in 6.2 mi ENE 3.5 mph - N/A   Partly Cloudy
11:00 AM 64.4 °F 55.4 °F 73% 30.06 in 6.2 mi East 4.6 mph - N/A   Partly Cloudy
11:30 AM 64.4 °F 51.8 °F 64% 30.04 in 6.2 mi East 3.5 mph - N/A   Partly Cloudy
12:00 PM 66.2 °F 51.8 °F 60% 30.01 in 6.2 mi East 3.5 mph - N/A   Partly Cloudy
12:30 PM 66.2 °F 51.8 °F 60% 30.01 in 6.2 mi ESE 3.5 mph - N/A   Partly Cloudy
1:00 PM 66.2 °F 48.2 °F 52% 29.98 in 6.2 mi ESE 3.5 mph - N/A   Partly Cloudy
1:30 PM 66.2 °F 48.2 °F 52% 29.98 in 6.2 mi ESE 4.6 mph - N/A   Partly Cloudy
2:00 PM 65 °F 51 °F 50% 29.99 in 16 mi SE 5.8 mph - -   Scattered Clouds
2:00 PM 64.4 °F 50.0 °F 59% 29.98 in 6.2 mi SE 5.8 mph - N/A   Partly Cloudy
2:30 PM 64.4 °F 50.0 °F 59% 29.98 in 6.2 mi SSE 5.8 mph - N/A   Partly Cloudy
3:30 PM 64.4 °F 51.8 °F 64% 29.95 in 6.2 mi SSE 4.6 mph - N/A   Partly Cloudy
4:00 PM 64.4 °F 51.8 °F 64% 29.95 in 6.2 mi Variable 2.3 mph - N/A   Partly Cloudy
4:30 PM 62.6 °F 51.8 °F 68% 29.95 in 6.2 mi SSW 3.5 mph - N/A   Partly Cloudy
5:00 PM 62 °F 52 °F 61% 29.94 in 16 mi SSW 3.5 mph - -   Scattered Clouds
5:00 PM 60.8 °F 51.8 °F 72% 29.92 in 6.2 mi SSW 3.5 mph - N/A   Partly Cloudy
5:30 PM 60.8 °F 50.0 °F 68% 29.92 in 6.2 mi SW 3.5 mph - N/A   Partly Cloudy
6:00 PM 60.8 °F 50.0 °F 68% 29.95 in 6.2 mi SW 4.6 mph - N/A   Partly Cloudy
6:30 PM 57.2 °F 51.8 °F 82% 29.95 in 6.2 mi West 4.6 mph - N/A   Partly Cloudy
7:00 PM 57.2 °F 51.8 °F 82% 29.95 in 6.2 mi WSW 3.5 mph - N/A   Partly Cloudy
7:30 PM 57.2 °F 50.0 °F 77% 29.92 in 6.2 mi West 4.6 mph - N/A   Partly Cloudy
8:00 PM 55 °F 50 °F 78% 29.94 in 12 mi NW 4.6 mph - -   Scattered Clouds
8:00 PM 55.4 °F 50.0 °F 82% 29.92 in 6.2 mi NW 4.6 mph - N/A   Partly Cloudy
8:30 PM 53.6 °F 50.0 °F 88% 29.92 in 6.2 mi WNW 4.6 mph - N/A   Partly Cloudy
9:00 PM 53.6 °F 51.8 °F 94% 29.92 in 6.2 mi West 3.5 mph - N/A   Partly Cloudy
9:30 PM 55.4 °F 50.0 °F 82% 29.92 in 6.2 mi NW 5.8 mph - N/A   Partly Cloudy
10:00 PM 53.6 °F 50.0 °F 88% 29.92 in 6.2 mi NW 4.6 mph - N/A   Partly Cloudy
10:30 PM 53.6 °F 50.0 °F 88% 29.92 in 6.2 mi WNW 4.6 mph - N/A   Partly Cloudy
11:00 PM 53.6 °F 50.0 °F 88% 29.92 in 6.2 mi NNW 4.6 mph - N/A Rain , Thunderstorm Light Thunderstorms and Rain
11:30 PM 53.6 °F 51.8 °F 94% 29.92 in 6.2 mi WNW 8.1 mph - N/A Rain , Thunderstorm Light Thunderstorms and Rain